Valparaiso, IN

10:53 PM CST on February 23, 2018 (GMT -0600)
Porter County Municipal

Weather History for KVPZ - October, 2012

Change the Weather History Date:

Tuesday, October 30, 2012

  Actual Average Record
Temperature  
Mean Temperature 44 °F 48 °F  
Max Temperature 46 °F 57 °F 76 °F (1999)
Min Temperature 41 °F 39 °F 26 °F (2011)
Degree Days  
Heating Degree Days 21 17  
Month to date heating degree days 408 384  
Since 1 July heating degree days 543 514  
Cooling Degree Days 0 0  
Month to date cooling degree days 5 11  
Year to date cooling degree days 1054 713  
Moisture  
Dew Point 36 °F    
Average Humidity 78    
Maximum Humidity 89    
Minimum Humidity 56    
Precipitation  
Precipitation 0.20 in 0.08 in 2.32 in (2011)
Month to date precipitation 3.22 3.16  
Year to date precipitation 23.90 31.91  
Sea Level Pressure  
Sea Level Pressure 29.75 in    
Wind  
Wind Speed 20 mph (NNW)    
Max Wind Speed 32 mph    
Max Gust Speed 49 mph    
Visibility 7 miles    
Events Rain    
T = Trace of Precipitation, MM = Missing Value Source: NWS Daily Summary

Daily Weather History Graph

Daily Weather History Graph

Search for Another Location

Airport or City:

Trip Planner

Search our weather history database for the weather conditions in past years. The results will help you decide how hot, cold, wet, or windy it might be!

Date:

Astronomy

Oct. 30, 2012 Rise Set
Actual Time 7:17 AM CDT 5:44 PM CDT
Civil Twilight 6:49 AM CDT 6:13 PM CDT
Nautical Twilight 6:16 AM CDT 6:46 PM CDT
Astronomical Twilight 5:44 AM CDT 7:18 PM CDT
Moon 6:13 PM CDT (10/30) 8:04 AM CDT (10/30)
Length of Visible Light 11h 24m
Length of Day
10h 27m
Full, 99% of the Moon is Illuminated
Oct 30
Full
Nov 6
Last Quarter
Nov 13
New
Nov 20
First Quarter
Nov 28
Full

Hourly Weather History & Observations

Time (CDT) Temp. Windchill Dew Point Humidity Pressure Visibility Wind Dir Wind Speed Gust Speed Precip Events Conditions
12:53 AM 45.0 °F 36.4 °F 30.0 °F 56% 29.91 in 10.0 mi North 23.0 mph 40.3 mph N/A   Mostly Cloudy
2:53 AM 45.0 °F 36.4 °F 30.9 °F 58% 29.86 in 10.0 mi North 23.0 mph 36.8 mph N/A   Mostly Cloudy
3:53 AM 45.0 °F 36.2 °F 32.0 °F 60% 29.83 in 10.0 mi NNW 24.2 mph 42.6 mph N/A   Mostly Cloudy
4:53 AM 44.1 °F 35.2 °F 30.9 °F 60% 29.82 in 10.0 mi NNW 23.0 mph 42.6 mph N/A   Overcast
5:53 AM 44.1 °F 36.8 °F 30.9 °F 60% 29.79 in 10.0 mi NNW 16.1 mph 46.0 mph N/A   Mostly Cloudy
6:53 AM 44.1 °F 34.4 °F 30.9 °F 60% 29.78 in 10.0 mi NNW 27.6 mph 40.3 mph N/A   Overcast
7:53 AM 44.1 °F 35.7 °F 30.9 °F 60% 29.76 in 10.0 mi North 20.7 mph 43.7 mph N/A   Overcast
8:42 AM 44.6 °F 35.9 °F 32.0 °F 61% 29.74 in 10.0 mi North 23.0 mph 42.6 mph N/A   Overcast
8:53 AM 45.0 °F 34.9 °F 33.1 °F 63% 29.75 in 10.0 mi North 32.2 mph 46.0 mph N/A   Overcast
9:53 AM 44.1 °F 34.2 °F 34.0 °F 68% 29.73 in 10.0 mi North 28.8 mph 46.0 mph N/A   Overcast
10:53 AM 44.1 °F 35.4 °F 35.1 °F 71% 29.74 in 10.0 mi North 21.9 mph 42.6 mph N/A   Overcast
11:53 AM 44.1 °F 35.7 °F 35.1 °F 71% 29.73 in 10.0 mi NNW 20.7 mph 40.3 mph N/A   Overcast
1:25 PM 42.8 °F 35.1 °F 37.4 °F 81% 29.71 in 2.0 mi NNW 16.1 mph 35.7 mph 0.02 in   Overcast
1:34 PM 42.8 °F 33.8 °F 37.4 °F 81% 29.72 in 1.8 mi North 21.9 mph 35.7 mph 0.03 in   Overcast
1:49 PM 42.8 °F 34.5 °F 37.4 °F 81% 29.71 in 2.0 mi NNW 18.4 mph 35.7 mph 0.04 in   Overcast
1:53 PM 42.1 °F 33.6 °F 37.9 °F 85% 29.72 in 2.5 mi NNW 18.4 mph 34.5 mph 0.05 in   Overcast
2:24 PM 42.8 °F 34.8 °F 37.4 °F 81% 29.71 in 3.0 mi NNW 17.3 mph 34.5 mph 0.01 in   Overcast
2:53 PM 42.1 °F 33.3 °F 37.9 °F 85% 29.72 in 3.0 mi NNW 19.6 mph 38.0 mph 0.03 in   Overcast
3:00 PM 42.8 °F 33.5 °F 37.4 °F 81% 29.71 in 3.0 mi NNW 23.0 mph 38.0 mph N/A   Overcast
3:25 PM 42.8 °F 34.3 °F 37.4 °F 81% 29.72 in 6.0 mi NNW 19.6 mph 33.4 mph 0.00 in Rain Light Rain
3:44 PM 42.8 °F 34.3 °F 37.4 °F 81% 29.72 in 6.0 mi NNW 19.6 mph 35.7 mph 0.01 in Rain Light Rain
3:53 PM 42.1 °F 33.1 °F 37.9 °F 85% 29.73 in 9.0 mi NNW 20.7 mph 31.1 mph 0.01 in Rain Light Rain
4:26 PM 42.8 °F 35.4 °F 39.2 °F 87% 29.72 in 3.0 mi NNW 15.0 mph 29.9 mph 0.01 in   Overcast
4:37 PM 42.8 °F 34.0 °F 37.4 °F 81% 29.73 in 2.5 mi NNW 20.7 mph 35.7 mph 0.01 in   Overcast
4:50 PM 41.0 °F 31.6 °F 37.4 °F 87% 29.73 in 3.0 mi NNW 20.7 mph 36.8 mph 0.02 in Rain Light Rain
4:53 PM 41.0 °F 32.2 °F 37.9 °F 89% 29.75 in 3.0 mi NNW 18.4 mph 32.2 mph 0.02 in Rain Light Rain
5:53 PM 41.0 °F 32.8 °F 37.9 °F 89% 29.75 in 7.0 mi NNW 16.1 mph 29.9 mph 0.02 in Rain Light Rain
6:53 PM 42.1 °F 34.9 °F 37.0 °F 82% 29.77 in 9.0 mi NNW 13.8 mph 34.5 mph 0.01 in Rain Light Rain
7:41 PM 42.8 °F 35.4 °F 37.4 °F 81% 29.75 in 9.0 mi NNW 15.0 mph 25.3 mph 0.01 in Rain Light Rain
7:50 PM 41.0 °F 32.8 °F 37.4 °F 87% 29.75 in 6.0 mi NNW 16.1 mph 32.2 mph 0.02 in Rain Light Rain
7:53 PM 41.0 °F 33.5 °F 37.0 °F 86% 29.77 in 6.0 mi NNW 13.8 mph 32.2 mph 0.02 in Rain Light Rain
8:53 PM 41.0 °F 33.5 °F 37.9 °F 89% 29.76 in 10.0 mi NNW 13.8 mph 27.6 mph 0.02 in Rain Light Rain
9:53 PM 41.0 °F 33.1 °F 37.0 °F 86% 29.76 in 10.0 mi NNW 15.0 mph 28.8 mph 0.01 in   Overcast
10:25 PM 41.0 °F 33.9 °F 37.4 °F 87% 29.73 in 10.0 mi NNW 12.7 mph 26.5 mph 0.00 in Rain Light Rain
10:37 PM 41.0 °F 33.5 °F 37.4 °F 87% 29.73 in 9.0 mi NNW 13.8 mph 25.3 mph 0.00 in Rain Light Rain
10:53 PM 41.0 °F 33.1 °F 37.0 °F 86% 29.74 in 10.0 mi NNW 15.0 mph 28.8 mph 0.00 in   Overcast
11:25 PM 41.0 °F 32.5 °F 37.4 °F 87% 29.73 in 9.0 mi NNW 17.3 mph 27.6 mph 0.01 in Rain Light Rain
11:43 PM 41.0 °F 33.9 °F 37.4 °F 87% 29.72 in 10.0 mi NNW 12.7 mph 20.7 mph 0.01 in   Overcast
11:53 PM 41.0 °F 33.9 °F 37.0 °F 86% 29.73 in 10.0 mi NNW 12.7 mph 31.1 mph 0.01 in Rain Light Rain